Météo par heure à Jumprava

Ce jour, 17 Juin, Jeudi

Heure Température Précipitation Vent Pression Humidité
00:00 +12°C° 0 mm 1 m/s 760 mmHg 83%
01:00 +12°C° 0 mm 1 m/s 760 mmHg 85%
02:00 +11°C° 0 mm 1 m/s 760 mmHg 88%
03:00 +12°C° 0 mm 1 m/s 760 mmHg 87%
04:00 +12°C° 0 mm 1 m/s 760 mmHg 86%
05:00 +13°C° 0 mm 1 m/s 761 mmHg 86%
06:00 +15°C° 0 mm 1 m/s 761 mmHg 77%
07:00 +18°C° 0 mm 1 m/s 761 mmHg 69%
08:00 +20°C° 0 mm 1 m/s 761 mmHg 59%
09:00 +22°C° 0 mm 1 m/s 761 mmHg 53%
10:00 +23°C° 0 mm 2 m/s 761 mmHg 48%
11:00 +24°C° 0 mm 2 m/s 762 mmHg 42%
12:00 +25°C° 0 mm 2 m/s 762 mmHg 40%
13:00 +26°C° 0 mm 2 m/s 761 mmHg 39%
14:00 +26°C° 0 mm 3 m/s 761 mmHg 37%
15:00 +26°C° 0 mm 2 m/s 761 mmHg 39%
16:00 +26°C° 0 mm 2 m/s 761 mmHg 41%
17:00 +26°C° 0 mm 2 m/s 761 mmHg 43%
18:00 +24°C° 0 mm 2 m/s 761 mmHg 54%
19:00 +23°C° 0 mm 1 m/s 761 mmHg 64%
20:00 +21°C° 0 mm 1 m/s 761 mmHg 74%
21:00 +20°C° 0 mm 1 m/s 761 mmHg 77%
22:00 +18°C° 0 mm 1 m/s 761 mmHg 80%
23:00 +16°C° 0 mm 1 m/s 762 mmHg 82%

Demain, 18 Juin, Vendredi

Heure Température Précipitation Vent Pression Humidité
00:00 +15°C° 0 mm 2 m/s 762 mmHg 84%
01:00 +15°C° 0 mm 2 m/s 761 mmHg 86%
02:00 +14°C° 0 mm 2 m/s 761 mmHg 88%
03:00 +15°C° 0 mm 2 m/s 761 mmHg 88%
04:00 +15°C° 0 mm 2 m/s 761 mmHg 88%
05:00 +15°C° 0 mm 1 m/s 761 mmHg 87%
06:00 +17°C° 0 mm 2 m/s 761 mmHg 80%
07:00 +20°C° 0 mm 2 m/s 761 mmHg 72%
08:00 +23°C° 0 mm 2 m/s 761 mmHg 64%
09:00 +24°C° 0 mm 3 m/s 761 mmHg 59%
10:00 +26°C° 0 mm 3 m/s 761 mmHg 55%
11:00 +27°C° 0 mm 3 m/s 761 mmHg 50%
12:00 +28°C° 0 mm 3 m/s 761 mmHg 48%
13:00 +28°C° 0 mm 3 m/s 761 mmHg 46%
14:00 +29°C° 0 mm 4 m/s 760 mmHg 44%
15:00 +29°C° 0 mm 3 m/s 760 mmHg 46%
16:00 +29°C° 0 mm 3 m/s 760 mmHg 47%
17:00 +28°C° 0 mm 3 m/s 760 mmHg 49%
18:00 +27°C° 0 mm 3 m/s 760 mmHg 58%
19:00 +25°C° 0 mm 2 m/s 760 mmHg 68%
20:00 +23°C° 0 mm 2 m/s 760 mmHg 77%
21:00 +21°C° 0 mm 2 m/s 760 mmHg 81%
22:00 +20°C° 0 mm 2 m/s 760 mmHg 85%
23:00 +18°C° 0 mm 2 m/s 760 mmHg 89%

Après-demain, 19 Juin, Samedi

Heure Température Précipitation Vent Pression Humidité
00:00 +18°C° 0 mm 2 m/s 760 mmHg 90%
01:00 +17°C° 0 mm 2 m/s 760 mmHg 91%
02:00 +16°C° 0 mm 2 m/s 760 mmHg 92%
03:00 +16°C° 0 mm 2 m/s 760 mmHg 91%
04:00 +17°C° 0 mm 2 m/s 760 mmHg 90%
05:00 +17°C° 0 mm 2 m/s 760 mmHg 90%
06:00 +19°C° 0 mm 2 m/s 760 mmHg 81%
07:00 +21°C° 0 mm 2 m/s 760 mmHg 73%
08:00 +24°C° 0 mm 2 m/s 760 mmHg 65%
09:00 +25°C° 0 mm 2 m/s 760 mmHg 59%
10:00 +27°C° 0 mm 3 m/s 760 mmHg 54%
11:00 +28°C° 0 mm 3 m/s 760 mmHg 49%
12:00 +29°C° 0 mm 3 m/s 759 mmHg 48%
13:00 +30°C° 0 mm 3 m/s 759 mmHg 47%
14:00 +30°C° 0 mm 4 m/s 759 mmHg 46%
15:00 +30°C° 0 mm 4 m/s 758 mmHg 48%
16:00 +30°C° 0 mm 4 m/s 758 mmHg 49%
17:00 +30°C° 0 mm 3 m/s 758 mmHg 50%
18:00 +28°C° 0 mm 3 m/s 758 mmHg 60%
19:00 +27°C° 0 mm 2 m/s 758 mmHg 69%
20:00 +25°C° 0 mm 1 m/s 758 mmHg 78%
21:00 +24°C° 0 mm 2 m/s 758 mmHg 82%
22:00 +23°C° 0 mm 2 m/s 758 mmHg 85%
23:00 +20°C° 0 mm 2 m/s 758 mmHg 89%

20 Juin, Dimanche

Heure Température Précipitation Vent Pression Humidité
00:00 +20°C° 0 mm 2 m/s 758 mmHg 91%
01:00 +19°C° 0 mm 2 m/s 758 mmHg 94%
02:00 +19°C° 0 mm 2 m/s 758 mmHg 96%
03:00 +19°C° 0 mm 2 m/s 758 mmHg 95%
04:00 +19°C° 0 mm 2 m/s 758 mmHg 93%
05:00 +20°C° 0 mm 2 m/s 758 mmHg 92%
06:00 +21°C° 0 mm 2 m/s 758 mmHg 84%
07:00 +24°C° 0 mm 3 m/s 758 mmHg 75%
08:00 +26°C° 0 mm 3 m/s 758 mmHg 67%
09:00 +27°C° 0 mm 3 m/s 758 mmHg 63%
10:00 +28°C° 0 mm 3 m/s 758 mmHg 58%
11:00 +29°C° 0 mm 3 m/s 757 mmHg 54%
12:00 +30°C° 0.1 mm 3 m/s 757 mmHg 52%
13:00 +30°C° 0.1 mm 3 m/s 757 mmHg 50%
14:00 +31°C° 0.1 mm 3 m/s 757 mmHg 48%
15:00 +31°C° 0 mm 3 m/s 757 mmHg 49%
16:00 +30°C° 0 mm 3 m/s 756 mmHg 49%
17:00 +30°C° 0 mm 2 m/s 756 mmHg 49%
18:00 +29°C° 0 mm 2 m/s 756 mmHg 59%
19:00 +27°C° 0 mm 2 m/s 756 mmHg 69%
20:00 +25°C° 0 mm 1 m/s 756 mmHg 78%
21:00 +24°C° 0 mm 2 m/s 756 mmHg 82%
22:00 +23°C° 0 mm 2 m/s 756 mmHg 87%
23:00 +21°C° 0 mm 2 m/s 757 mmHg 91%

21 Juin, Lundi

Heure Température Précipitation Vent Pression Humidité
00:00 +20°C° 0 mm 2 m/s 757 mmHg 93%
01:00 +20°C° 0 mm 2 m/s 757 mmHg 94%
02:00 +19°C° 0 mm 2 m/s 757 mmHg 96%
03:00 +20°C° 0 mm 2 m/s 757 mmHg 95%
04:00 +20°C° 0 mm 2 m/s 756 mmHg 94%
05:00 +20°C° 0 mm 2 m/s 756 mmHg 93%
06:00 +23°C° 0 mm 2 m/s 756 mmHg 85%
07:00 +25°C° 0 mm 2 m/s 756 mmHg 77%
08:00 +26°C° 0 mm 3 m/s 756 mmHg 69%
09:00 +28°C° 0 mm 3 m/s 756 mmHg 63%
10:00 +29°C° 0 mm 3 m/s 756 mmHg 56%
11:00 +30°C° 0 mm 4 m/s 756 mmHg 50%
12:00 +32°C° 0 mm 4 m/s 756 mmHg 46%
13:00 +32°C° 0 mm 4 m/s 755 mmHg 43%
14:00 +33°C° 0 mm 4 m/s 755 mmHg 40%
15:00 +33°C° 0 mm 4 m/s 755 mmHg 40%
16:00 +33°C° 0 mm 3 m/s 755 mmHg 41%
17:00 +33°C° 0 mm 3 m/s 755 mmHg 42%
18:00 +30°C° 0 mm 3 m/s 755 mmHg 51%
19:00 +28°C° 0 mm 2 m/s 754 mmHg 61%
20:00 +26°C° 0 mm 2 m/s 754 mmHg 71%
21:00 +25°C° 0 mm 2 m/s 755 mmHg 74%
22:00 +24°C° 0 mm 2 m/s 755 mmHg 77%
23:00 +22°C° 0 mm 3 m/s 755 mmHg 79%

22 Juin, Mardi

Heure Température Précipitation Vent Pression Humidité
00:00 +21°C° 0 mm 2 m/s 755 mmHg 82%
01:00 +20°C° 0 mm 2 m/s 755 mmHg 84%
02:00 +19°C° 0 mm 2 m/s 754 mmHg 86%
03:00 +20°C° 0 mm 2 m/s 754 mmHg 86%
04:00 +20°C° 0 mm 3 m/s 754 mmHg 85%
05:00 +20°C° 0 mm 3 m/s 754 mmHg 85%
06:00 +22°C° 0 mm 3 m/s 754 mmHg 79%
07:00 +25°C° 0 mm 4 m/s 754 mmHg 74%
08:00 +27°C° 0 mm 4 m/s 754 mmHg 68%
09:00 +28°C° 0 mm 4 m/s 754 mmHg 62%
10:00 +29°C° 0 mm 5 m/s 753 mmHg 55%
11:00 +32°C° 0 mm 5 m/s 753 mmHg 48%
12:00 +32°C° 0 mm 5 m/s 753 mmHg 49%
13:00 +32°C° 0 mm 5 m/s 753 mmHg 49%
14:00 +32°C° 0 mm 5 m/s 753 mmHg 50%
15:00 +30°C° 0.1 mm 5 m/s 753 mmHg 55%
16:00 +29°C° 0.1 mm 4 m/s 753 mmHg 61%
17:00 +28°C° 0.1 mm 4 m/s 753 mmHg 66%
18:00 +28°C° 0 mm 3 m/s 753 mmHg 70%
19:00 +27°C° 0 mm 3 m/s 753 mmHg 73%
20:00 +26°C° 0 mm 3 m/s 752 mmHg 77%
21:00 +25°C° 0 mm 3 m/s 753 mmHg 81%
22:00 +24°C° 0 mm 3 m/s 753 mmHg 85%
23:00 +22°C° 0 mm 3 m/s 753 mmHg 89%
Voir plus

Nous avons besoin de votre consentement

Meteoprog et ses fournisseurs de services peuvent stocker et accéder à des données personnelles telles que des cookies, des identifiants d'appareils ou d'autres technologies similaires sur votre appareil et traiter ces données pour personnaliser le contenu et les publicités, ainsi que pour fournir des fonctionnalités de médias sociaux et analyser le trafic.

  • Stocker et/ou accéder à des informations sur votre appareil

    Des cookies, des identifiants d'appareils ou d'autres informations peuvent être stockés ou accessibles sur votre appareil aux fins indiquées ci-dessus.

  • Annonces et contenus personnalisés, mesure des annonces et des contenus, connaissance de l'audience et développement de produits

    Les annonces et le contenu peuvent être personnalisés en fonction d'un profil. D'autres données peuvent être ajoutées pour mieux personnaliser les annonces et le contenu. Les performances des publicités et du contenu peuvent être mesurées. Il est possible d'obtenir des informations sur le public qui a vu les publicités et le contenu. Ces données peuvent être utilisées pour développer ou améliorer l'expérience de l'utilisateur, les systèmes et les logiciels.

En cliquant sur "J'accepte", vous autorisez l'utilisation de cookies, des identifiants d'appareils, des balises web ou d'autres technologies similaires. Vos paramètres peuvent être modifiés dans le navigateur de votre appareil.

Dans certains cas, des intérêts légitimes peuvent être invoqués plutôt qu'un consentement. Vous pouvez en savoir plus à ce sujet dans notre Politique de confidentialité et de cookies.